Location: Antioch Baptist Church
(32.6696°N, 85.7327°W)
Time: 11:30:25
(UTC+00:00)

Meteor 2-9 Rocket - Pass Details

Date: 14 July 2020
Orbit: 792 x 894 km, 81.3° (Epoch: 08 August)

Event Time Altitude Azimuth Distance (km) Brightness Sun altitude
Exits shadow 09:36:43 16° 211° (SSW) 1,955 5.5 -13.2°
Maximum altitude 09:40:44 49° 281° (W) 1,021 4.4 -12.5°
Drops below altitude 10° 09:45:53 10° 355° (N) 2,371 7.0 -11.6°
Sets 09:48:22 0° 1° (N) 3,312 7.8 -11.2°
